Theta_e
303 304 305 305 305 305 305 306 306 306 306 307 307 307 308 308 307 307 307 307 312 319 328 329 327 322 334 332 331 332 333 335
302 302 303 303 304 304 304 304 305 305 306 306 307 307 307 307 307 307 307 307 306 308 320 324 325 327 327 329 333 334 334 333
300 301 302 302 302 303 303 304 304 304 304 305 305 306 307 307 307 307 307 307 307 307 309 318 324 329 327 326 332 334 334 333
299 299 299 299 300 301 302 302 303 304 304 304 304 305 305 306 306 307 307 306 306 307 307 310 319 327 328 323 325 326 333 333
297 297 297 296 296 297 298 299 300 301 301 302 302 302 304 304 304 305 305 305 306 306 307 307 312 321 325 326 324 324 326 328
295 295 295 295 295 296 296 296 296 296 297 297 297 298 299 300 301 302 304 303 304 305 306 306 307 312 320 327 325 324 324 325
294 294 294 294 293 293 293 293 295 294 295 296 296 295 295 296 298 299 301 302 303 304 305 305 306 307 312 323 326 326 324 328
292 292 293 292 293 292 292 292 293 292 292 292 292 291 292 292 294 295 298 299 299 301 304 304 305 306 308 314 325 325 326 330
292 292 292 292 292 291 291 290 291 290 290 290 289 289 290 291 292 293 295 298 298 300 301 302 305 306 308 308 313 322 324 326
292 292 292 291 290 289 288 289 289 289 288 288 287 288 289 290 292 293 294 295 297 298 300 301 303 306 309 309 308 312 317 323
291 291 290 290 290 290 290 290 289 288 288 288 287 288 288 290 291 293 293 295 297 299 300 304 307 307 309 310 311 310 311 313
290 290 291 291 290 290 290 289 289 288 288 287 287 287 288 289 290 291 292 294 297 299 302 306 307 307 309 311 313 313 312 311
290 291 291 291 291 291 291 290 290 289 287 287 287 286 287 288 289 290 292 293 295 298 302 305 308 309 309 310 312 315 315 317
290 291 290 287 287 290 292 291 291 290 289 288 287 286 286 287 288 290 291 293 294 297 301 304 306 308 309 310 310 311 317 316
288 286 285 284 284 285 288 289 291 291 290 289 289 287 286 287 289 290 290 291 292 292 293 295 299 301 305 307 310 313 313 316
285 284 284 283 283 284 284 284 285 289 290 291 290 290 290 290 290 291 292 293 293 293 294 295 294 294 299 302 303 307 311 311
284 283 283 283 283 283 283 283 283 284 284 284 287 291 293 293 293 294 294 294 293 295 296 295 294 292 295 295 298 300 304 304
283 283 283 282 282 282 283 283 282 283 284 283 283 283 284 285 287 290 293 293 294 294 293 291 292 293 294 294 294 295 297 297
283 282 282 282 283 283 283 283 283 283 283 283 283 283 283 283 284 284 284 285 285 285 285 287 289 289 292 294 295 294 295 294
Wind_Speed
12 13 14 16 16 18 19 21 23 22 21 21 24 26 25 25 27 29 30 30 32 31 31 29 51 67 35 42 44 43 41 36
14 17 19 20 21 22 23 24 25 26 29 29 28 29 34 34 36 36 33 33 33 34 29 26 36 51 55 31 43 43 42 39
21 22 22 22 23 24 25 27 27 28 30 30 32 35 35 38 41 42 39 35 35 35 30 29 28 36 57 58 41 38 38 42
26 28 28 27 27 27 28 29 30 31 32 35 34 35 40 38 39 45 42 37 33 37 35 33 27 30 35 55 50 45 39 42
24 27 29 30 31 31 31 30 28 29 29 31 35 37 40 42 40 39 45 39 36 34 38 33 33 30 31 40 66 60 44 41
25 26 28 28 29 30 32 32 32 32 31 31 34 38 37 39 40 39 40 41 38 35 34 35 34 34 30 24 49 73 51 56
23 25 27 29 31 33 33 32 32 31 31 30 31 33 35 36 37 37 34 36 36 34 32 33 33 35 33 31 24 50 59 51
24 28 30 32 34 34 32 32 33 33 32 32 30 31 31 31 32 32 32 33 34 32 29 28 29 33 36 35 36 41 42 39
22 25 27 29 30 30 30 31 32 32 31 30 29 28 27 26 26 27 29 29 28 26 25 25 26 27 32 37 40 39 36 36
21 22 24 26 26 26 25 28 28 28 28 27 26 26 25 23 22 23 26 25 24 24 23 26 24 23 25 30 37 39 38 39
17 19 21 22 23 23 23 25 27 26 24 23 22 23 23 20 20 21 20 21 21 21 21 23 18 18 20 23 26 31 37 36
15 16 17 20 21 22 23 25 27 27 25 22 22 26 21 17 15 13 13 13 14 13 12 11 6 11 14 19 21 22 27 29
13 14 16 19 21 23 25 25 27 27 25 21 21 25 23 19 18 16 17 16 14 12 10 7 5 7 11 15 19 20 19 20
9 12 15 18 21 23 23 25 25 25 27 24 22 25 28 27 26 26 25 24 24 20 18 14 11 6 5 9 12 14 17 22
8 11 13 16 19 20 21 23 23 24 27 27 28 29 29 31 31 33 37 36 35 34 31 29 24 18 11 6 2 10 11 14
7 10 12 16 18 19 20 22 24 24 26 27 30 32 33 35 38 38 40 42 43 43 40 39 37 32 27 20 14 11 10 9
5 8 11 15 17 19 21 22 24 25 28 29 28 29 31 34 36 38 40 43 44 44 45 44 43 44 34 32 27 25 18 16
4 7 10 12 15 18 20 22 23 24 26 27 29 31 33 34 35 35 36 38 39 42 43 44 43 40 37 37 39 37 35 31
7 8 9 10 11 14 17 20 22 24 25 26 27 28 30 31 33 35 37 38 39 40 41 39 39 38 34 35 35 37 38 37
Wind_Direction
17 5 355 343 334 329 324 318 317 313 306 299 297 295 288 286 285 286 284 282 276 276 278 261 236 237 260 252 249 247 245 243
360 356 349 340 332 326 323 321 319 316 312 308 298 296 296 294 292 293 292 287 280 274 264 268 260 237 241 237 253 249 248 245
358 351 346 341 335 328 325 323 321 320 317 312 307 301 293 290 289 286 286 283 280 274 265 262 248 275 237 237 243 244 249 248
356 353 351 345 339 335 330 326 323 319 314 309 303 296 293 288 283 285 283 281 275 273 269 254 257 248 246 219 232 234 243 242
355 351 350 349 345 340 336 331 327 321 315 309 306 303 298 297 294 286 288 285 280 271 269 262 249 247 252 236 223 236 245 251
354 352 349 346 343 342 340 338 336 333 329 324 318 312 307 301 298 294 288 289 285 279 270 266 254 242 248 256 229 230 238 251
353 352 350 350 350 348 346 341 339 337 332 326 320 316 313 308 304 300 294 292 290 285 274 265 258 247 236 235 229 225 230 239
358 356 356 353 351 349 346 342 341 340 338 334 331 324 320 316 312 311 310 304 301 295 284 269 259 248 240 229 230 236 245 243
360 357 355 352 349 348 346 345 342 342 340 338 336 334 326 317 310 310 308 304 304 305 296 283 266 250 242 239 235 234 243 251
360 359 358 354 352 350 352 349 349 347 345 343 349 344 336 328 319 309 303 298 297 303 301 291 276 262 248 242 243 241 239 244
5 6 1 359 358 354 355 357 357 354 353 353 0 358 343 337 329 324 319 313 304 300 290 299 284 267 261 254 252 248 245 242
5 7 7 6 8 4 4 8 6 5 2 5 16 18 2 2 0 357 356 348 337 324 311 326 292 279 271 265 260 258 253 248
2 7 10 13 14 15 13 16 15 12 14 16 30 35 22 36 40 44 42 38 31 24 14 4 334 290 283 279 274 264 252 246
7 12 14 15 18 20 17 22 23 23 27 29 37 48 43 48 56 58 59 59 54 52 50 43 34 14 330 301 287 265 248 241
19 18 17 24 25 24 23 25 26 30 38 40 43 52 55 58 62 66 66 65 65 61 61 63 63 62 69 74 208 242 223 214
23 23 25 31 33 32 35 35 34 35 41 41 48 55 58 63 63 64 67 68 66 65 64 64 66 65 68 75 80 104 132 144
43 38 40 42 42 41 42 42 43 43 47 46 47 51 56 58 62 63 62 61 62 65 65 62 61 65 72 75 80 84 94 96
87 65 58 54 50 48 49 49 50 50 52 52 51 52 55 58 60 60 59 61 64 62 60 60 60 61 64 66 72 73 77 78
111 91 79 68 61 57 57 55 53 53 52 54 54 55 55 57 59 60 60 60 60 61 61 60 60 57 56 60 62 65 68 68